Other Surface Observations
Issued by NWS Tucson, AZ

Home | Current Version | Previous Version | Text Only | Print | Product List | Glossary On
Versions: 1 2 3 4 5 6 7 8 9 10 11 12 13 14 15 16 17 18 19 20 21 22 23 24 25 26 27 28 29 30 31 32 33 34 35 36 37 38 39 40 41 42 43 44 45 46 47 48 49 50
286
SXUS55 KTWC 242315
OSOTWC

WEATHER ROUNDUP FOR SOUTHEAST ARIZONA
NATIONAL WEATHER SERVICE TUCSON AZ
415 PM MST WED AUG 24 2016

AZZ504>506-514-250015-
LOCATION       SKY/WX    TMP DP  RH WIND       PRES   REMARKS
TUCSON         MOSUNNY   95  47  19 N10       30.01F
DAVIS-MONTHAN  SUNNY     94  48  20 NW12G17   29.99F
CHILDRENS PARK N/A      N/A N/A  20 NW4               PIMA CO DEQ
ALVERNON/22ND  N/A       93 N/A N/A NW6               PIMA CO DEQ
CHERRY/GLENN   N/A      N/A N/A N/A N/A               PIMA CO DEQ
TANGERINE      N/A       95 N/A N/A W5                PIMA CO DEQ
CONTL RANCH    N/A       95  46  19 W9                PIMA CO DEQ
GRANT/1ST      N/A       94  47  20 N9                PIMA CO DEQ
CRAYCROFT/22ND N/A       95  45  18 N/A               PIMA CO DEQ
GOLFLINKS/KOLB N/A      N/A N/A N/A N/A               PIMA CO DEQ
AJO/12TH       N/A       94  47  20 SW7               PIMA CO DEQ
SAGUARO EAST   N/A       34  -1  21 W7                PIMA CO DEQ
FAIRGROUNDS    N/A       92 N/A N/A N/A               PIMA CO DEQ
SAGUARO        N/A       95  49  21 W9G17             *SABINO CYN
SAN CARLOS     N/A       97  45  17 NW8G14            *SAN CARLOS
GREEN VALLEY   N/A       92  44  19 NW4               PIMA CO DEQ
HORSE CAMP CYN N/A       88  49  26 W10G19            *ARAVAIPA CYN
RINCON MTNS    N/A       72  46  40 W3G10             *NR MANNING CAMP
$$

AZZ509>511-250015-
LOCATION       SKY/WX    TMP DP  RH WIND       PRES   REMARKS
SAFFORD        LGT RAIN  78  63  59 NE21      30.01S
STRAY HORSE    N/A       66  52  60 SW3               *
TRAIL CABIN    N/A       70  45  40 W3                *N OF GRANVILLE
BLACK HILLS    NOT AVBL
DRY LAKE       N/A       75  43  32 E4G13             *NATANES MTNS
NOON CREEK     N/A       88  41  19 NE7G17            *PINALENO MTNS
COLUMBINE      N/A       65  45  48 NW4G10            *PINALENO MTNS
GUTHRIE        N/A       68  41  38 CALM              *SW OF GUTHRIE
$$

AZZ502-503-513-250015-
LOCATION       SKY/WX    TMP DP  RH WIND       PRES   REMARKS
NOGALES        MOSUNNY   89  47  23 W6G17     30.09F
SELLS          N/A       98  46  17 SE4G13            *
SASABE         N/A       91  48  23 N3G10             *ALTAR VLY
HOPKINS        N/A       79  49  35 W9G17             *SANTA RITA MTNS
CARR CYN       N/A       79  49  35 CALM              *W OF HEREFORD
$$

AZZ507-508-512-250015-
LOCATION       SKY/WX    TMP DP  RH WIND       PRES   REMARKS
SIERRA VISTA   MOSUNNY   87  44  22 W12       30.15F
DOUGLAS        MOSUNNY   87  45  23 SW5       30.09F
EMPIRE MTNS    NOT AVBL
MULESHOE RANCH N/A       88  46  23 NW11G17           *PRESERVE
HEADQUARTERS   N/A       84  46  27 W7G16             *CHIRICAHUA MTNS
$$

.............................NOTES.............................
THIS IS AN AUTOMATED COLLECTIVE WITH MINIMAL QUALITY CONTROL.
PIMA CO DEQ SITES HAVE NONSTANDARD WIND SENSOR HEIGHTS.
PIMA CO DEQ SITES DO NOT REPORT WIND GUSTS.
* INDICATES WIND SENSORS LOCATED AT 20 FEET INSTEAD OF 33 FEET.
..............................KEY..............................
SKY/WX - SKY CONDITION/WEATHER
TMP    - TEMPERATURE IN FAHRENHEIT
DP     - DEWPOINT IN FAHRENHEIT
RH     - RELATIVE HUMIDITY IN PERCENT
WIND   - DIRECTION AND SPEED IN MILES PER HOUR (MPH)
VRB    - VARIABLE WIND DIRECTION
PRES   - MEAN SEA LEVEL PRESSURE IN INCHES OF MERCURY
         F - FALLING PRESSURE   R - RISING PRESSURE
         S - STEADY PRESSURE
VSB    - VISIBILITY IN MILES
HX     - HEAT INDEX IN FAHRENHEIT
WCI    - WIND CHILL INDEX IN FAHRENHEIT
N/A    - NOT AVAILABLE
AFB    - AIR FORCE BASE
         DAVIS-MONTHAN IS DAVIS-MONTHAN AIR FORCE BASE
CYN    - CANYON
MTNS   - MOUNTAINS
NCA    - NATIONAL CONSERVATION AREA
NR     - NEAR
VLY    - VALLEY
CONTL  - CONTINENTAL
PIMA CO DEQ - PIMA COUNTY DEPT OF ENVIRONMENTAL QUALITY



USA.gov is the U.S. government's official web portal to all federal, state and local government web resources and services.